Wind_Speed
44 45 45 46 47 47 47 45 43 43 46 50 54 57 59 60 61 62 62 62 60 59 57 55 55 55 56 58 59 59 59 59 60 62 64 66 67 68 68 68 68 69
43 44 45 46 46 47 47 47 46 48 51 55 58 59 61 62 63 64 63 61 60 58 57 58 58 60 61 61 62 61 61 62 64 67 68 69 69 69 69 69 71 72
41 43 44 45 46 47 47 49 50 53 56 58 59 61 62 64 64 64 63 61 61 60 61 62 62 63 63 63 63 64 65 67 69 70 70 69 69 70 71 73 73 73
41 42 44 46 47 48 49 51 53 55 57 59 61 62 63 64 64 64 64 64 64 64 65 64 64 64 65 65 66 68 70 71 71 70 69 69 71 72 73 74 73 72
46 45 45 46 48 50 52 54 56 57 59 61 62 63 64 65 66 66 66 66 66 66 66 65 65 66 67 69 71 72 72 71 70 69 70 71 72 73 73 73 71 70
50 50 50 50 51 53 55 57 58 60 61 63 64 65 66 67 67 67 67 67 67 67 67 67 68 70 72 73 73 72 71 70 70 70 71 72 72 73 73 71 70 70
53 54 55 56 57 58 59 60 62 63 64 65 66 66 67 67 67 67 68 68 68 69 70 71 73 74 73 72 72 72 71 71 70 70 71 72 73 73 72 71 71 71
55 56 57 58 59 60 61 62 63 64 65 65 66 66 67 67 68 68 69 70 71 72 73 74 74 73 72 71 71 72 71 70 69 70 72 73 73 72 71 71 71 72
58 59 59 60 61 61 62 62 63 64 64 65 65 66 67 68 69 71 72 73 74 74 74 73 71 71 71 71 71 70 69 69 70 72 73 74 73 72 71 71 72 73
60 60 61 62 63 63 64 64 65 65 66 67 68 69 70 71 72 73 74 74 74 73 71 70 70 70 70 70 69 69 69 71 73 74 75 74 73 72 72 73 73 73
62 62 63 63 64 64 65 66 66 67 68 69 70 71 72 72 72 72 72 71 70 69 69 69 69 69 69 69 70 71 72 74 75 75 74 73 73 73 74 74 74 74
63 64 65 65 65 66 66 67 67 68 68 69 69 70 69 69 69 69 68 67 67 67 67 68 68 68 70 72 73 73 74 74 74 73 73 73 74 75 75 75 75 75
64 65 66 67 68 68 68 68 68 69 68 68 68 68 67 66 66 66 66 66 66 67 67 68 69 70 72 73 73 73 73 72 72 73 74 74 75 76 77 77 77 76
64 65 65 66 67 67 68 67 67 67 66 65 65 65 64 64 64 63 64 65 65 66 67 68 69 70 71 72 72 72 72 72 73 74 75 76 77 78 79 79 78 77
63 64 64 63 63 63 63 63 63 62 62 61 60 60 60 61 61 61 61 62 62 64 64 65 66 67 68 70 71 72 73 74 76 76 78 79 80 81 81 80 79 78
61 61 61 60 59 58 58 58 58 58 58 57 57 57 57 57 58 58 59 60 61 62 63 64 65 67 69 71 72 74 76 77 77 79 80 81 82 82 81 80 79 79
55 55 55 55 54 54 53 53 53 53 54 54 54 55 55 56 56 57 58 59 60 61 62 64 66 68 70 72 74 76 77 78 80 81 82 83 82 82 80 80 79 79
49 50 50 50 51 50 50 50 50 50 51 51 52 53 54 54 55 57 58 59 60 62 64 67 69 71 73 74 76 77 79 80 82 83 84 84 83 82 81 80 80 80
47 48 48 49 49 50 50 50 50 50 51 52 53 53 54 55 57 59 61 62 64 66 68 70 72 73 75 76 78 80 81 83 84 85 86 85 83 81 80 80 80 81
49 49 49 48 48 49 49 50 51 52 53 54 55 56 57 59 61 63 64 66 68 69 71 72 74 75 77 78 80 82 84 85 86 87 86 84 82 80 80 80 81 82
51 50 49 48 48 48 49 50 51 53 54 56 57 59 60 62 64 65 66 68 69 71 72 74 75 78 80 82 83 84 86 87 87 85 83 81 80 80 80 81 82 84
52 51 50 49 49 49 50 52 53 55 56 58 59 61 63 64 66 67 68 70 71 73 75 77 79 81 83 84 85 86 87 86 84 81 80 79 79 80 81 82 83 84
53 51 49 49 50 51 53 54 56 57 58 60 61 64 66 67 68 69 71 72 74 76 78 80 81 83 84 85 86 85 84 82 79 78 78 78 79 80 82 83 84 83
54 52 51 51 52 53 53 54 56 58 60 62 65 67 69 69 70 72 73 75 76 78 80 81 83 84 85 84 83 81 79 77 76 76 77 78 80 81 82 83 81 79
51 52 52 53 53 54 55 57 59 61 63 65 68 69 70 70 72 74 75 77 79 80 82 83 83 83 82 80 78 76 75 74 75 76 78 79 81 82 81 80 77 76
53 54 55 56 57 58 60 61 62 64 65 67 68 69 70 72 74 76 77 79 80 81 82 82 81 79 77 75 74 73 73 74 75 77 79 80 81 80 78 76 75 74
Wind_Direction
254 255 258 260 260 261 264 264 258 255 257 260 265 270 274 278 282 285 287 289 291 293 294 296 297 298 299 301 303 304 305 305 305 305 306 307 308 310 311 311 312 312
254 255 257 259 260 262 262 261 258 257 259 263 267 271 275 279 282 284 287 289 291 293 294 295 297 298 300 301 302 303 303 303 304 305 306 308 309 310 310 311 311 312
257 256 258 260 262 262 260 257 256 257 260 264 267 271 276 279 282 284 287 289 291 293 295 296 298 299 300 301 301 302 303 304 305 306 307 308 309 309 310 311 311 312
259 259 260 260 261 260 258 257 258 260 263 266 270 273 277 280 282 284 287 290 292 294 295 297 298 299 300 300 301 302 303 305 306 307 307 308 309 309 310 311 312 312
258 260 261 261 261 260 259 260 262 265 267 270 273 276 278 281 283 286 289 291 293 295 296 297 298 299 300 300 301 303 304 305 306 306 307 308 309 310 311 311 311 312
256 258 259 260 261 262 263 264 266 268 271 273 275 278 280 283 285 288 290 292 293 295 296 297 298 299 300 301 302 303 304 305 305 306 307 308 309 310 311 311 311 311
256 257 259 260 262 263 264 266 268 270 272 275 277 280 282 284 287 289 291 292 293 294 295 296 297 299 300 301 302 303 304 304 305 307 308 309 310 311 311 311 310 310
258 259 261 262 264 266 267 269 270 272 274 276 279 282 284 286 288 289 291 292 293 294 295 296 298 299 300 300 301 303 304 305 306 307 308 309 310 310 310 310 310 310
263 264 264 266 267 269 270 272 274 275 277 279 281 283 285 287 289 290 291 292 293 295 296 297 298 299 299 300 301 303 304 305 307 307 308 309 309 309 310 309 309 309
269 270 270 270 271 272 273 275 276 277 279 280 282 284 285 287 288 290 291 293 294 295 296 297 298 298 299 300 301 302 304 305 306 307 308 308 308 309 309 309 308 308
273 274 275 275 275 276 276 277 278 279 280 281 282 284 286 287 289 291 292 293 294 295 296 297 298 298 298 299 301 303 304 305 306 307 307 308 308 308 308 308 308 308
275 276 277 278 278 278 279 279 280 281 282 283 284 286 288 289 291 292 293 293 294 294 295 296 297 297 298 299 301 303 304 305 306 306 307 307 308 308 308 308 308 307
277 278 278 279 279 280 280 281 282 283 284 286 287 288 289 290 291 292 292 293 293 294 295 296 296 296 298 299 301 303 304 305 306 306 307 307 307 307 308 308 308 307
278 279 280 281 281 282 282 283 284 285 286 287 288 289 290 290 291 292 292 293 293 294 295 296 297 298 299 300 302 303 304 304 305 306 306 307 307 308 308 308 308 307
279 280 280 281 282 283 284 284 285 286 287 288 289 290 291 291 292 293 293 294 295 296 297 298 299 300 300 301 302 303 304 305 305 306 307 307 308 309 309 308 307 306
279 280 281 281 282 283 284 284 285 286 287 288 289 290 291 292 293 294 295 296 297 297 298 299 299 300 301 301 302 303 304 305 306 307 308 309 309 309 308 307 306 305
280 280 281 281 282 282 283 285 286 287 288 288 289 291 292 293 294 296 296 297 297 297 298 298 299 300 301 302 303 304 305 306 307 308 309 310 309 308 307 306 306 306
281 281 281 281 282 283 284 286 287 287 288 289 290 291 293 294 295 295 295 296 296 296 297 298 299 300 301 303 304 304 305 306 308 309 309 309 308 306 306 307 308 309
281 281 281 281 283 284 286 287 287 288 288 289 290 291 292 293 294 294 294 294 295 296 297 298 299 300 301 302 303 305 306 307 308 308 308 308 307 307 308 309 309 309
280 280 280 282 283 285 286 287 287 287 288 289 289 290 291 293 293 293 293 294 295 296 297 298 299 300 302 303 304 305 306 307 307 308 308 308 308 309 309 309 309 310
279 279 281 283 283 284 285 286 287 287 288 288 289 290 292 293 294 294 295 296 297 298 298 300 301 302 303 304 305 306 307 307 308 308 308 308 308 309 309 309 310 310
278 280 281 282 283 283 284 285 287 288 288 289 290 292 293 295 295 296 297 298 298 299 300 301 303 304 304 305 306 306 307 307 307 307 307 308 308 309 309 309 310 310
278 281 281 281 283 284 285 286 287 288 289 290 291 294 295 296 297 297 298 299 300 301 302 303 304 304 305 305 306 306 306 307 307 307 308 308 309 309 309 309 310 310
277 278 279 281 283 284 284 286 287 288 289 290 293 295 296 296 297 298 299 300 301 302 302 303 304 304 305 305 306 306 306 306 307 308 308 309 309 309 310 310 311 311
275 276 278 280 282 282 284 286 287 289 289 291 292 294 294 295 297 299 300 301 302 302 303 303 304 304 305 305 306 306 306 307 308 308 309 309 309 310 310 311 311 312
275 276 278 279 280 282 285 286 287 288 289 290 291 292 294 296 298 299 300 301 302 302 303 303 304 304 305 305 306 306 307 308 308 309 309 310 310 310 311 311 312 312
Height
10724 10725 10725 10725 10725 10726 10726 10726 10726 10726 10726 10726 10725 10724 10723 10721 10719 10718 10716 10715 10713 10712 10710 10709 10707 10705 10703 10701 10699 10697 10696 10694 10692 10689 10687 10685 10682 10679 10677 10674 10671 10668
10720 10721 10721 10722 10722 10722 10722 10722 10722 10722 10721 10721 10720 10719 10717 10716 10714 10712 10711 10709 10708 10706 10705 10703 10701 10699 10697 10695 10693 10691 10690 10688 10686 10683 10680 10678 10675 10672 10669 10666 10663 10661
10716 10717 10718 10718 10718 10718 10718 10717 10717 10717 10716 10715 10714 10713 10712 10710 10708 10707 10705 10704 10702 10700 10699 10696 10695 10693 10691 10689 10687 10685 10683 10681 10678 10676 10673 10670 10667 10665 10662 10658 10655 10652
10713 10713 10713 10713 10714 10713 10713 10712 10712 10712 10711 10710 10709 10708 10706 10704 10702 10701 10699 10698 10696 10694 10692 10690 10688 10686 10684 10683 10680 10678 10676 10674 10671 10668 10666 10663 10660 10657 10654 10651 10647 10644
10708 10709 10709 10709 10708 10708 10708 10707 10707 10706 10706 10705 10703 10701 10700 10698 10696 10694 10692 10691 10689 10687 10685 10684 10682 10680 10678 10676 10673 10671 10669 10666 10664 10661 10658 10655 10652 10649 10646 10643 10640 10636
10703 10704 10704 10704 10703 10702 10702 10702 10701 10700 10699 10698 10697 10695 10693 10691 10689 10688 10686 10684 10682 10681 10679 10677 10675 10673 10671 10669 10666 10664 10661 10659 10656 10654 10651 10648 10645 10641 10638 10635 10632 10628
10698 10698 10698 10698 10698 10697 10697 10696 10695 10694 10693 10692 10691 10689 10687 10685 10683 10681 10680 10678 10676 10675 10673 10671 10669 10667 10664 10662 10659 10656 10654 10652 10649 10646 10643 10640 10637 10634 10631 10627 10624 10620
10692 10693 10693 10692 10692 10691 10691 10690 10689 10688 10687 10686 10684 10682 10680 10678 10677 10675 10673 10672 10670 10669 10667 10665 10663 10660 10657 10654 10652 10649 10647 10644 10642 10639 10635 10632 10629 10626 10623 10620 10616 10613
10686 10686 10687 10687 10686 10686 10685 10684 10683 10682 10681 10680 10678 10676 10674 10672 10671 10669 10667 10666 10664 10663 10661 10658 10656 10653 10650 10647 10645 10643 10640 10637 10634 10631 10628 10625 10622 10619 10616 10612 10609 10605
10679 10680 10681 10681 10680 10680 10679 10678 10677 10676 10675 10674 10672 10670 10668 10667 10666 10664 10662 10660 10658 10656 10653 10651 10648 10646 10643 10640 10638 10636 10633 10630 10627 10623 10620 10617 10614 10611 10608 10604 10601 10597
10674 10674 10674 10674 10674 10674 10673 10672 10671 10670 10669 10667 10666 10664 10663 10661 10660 10657 10655 10653 10650 10648 10646 10644 10641 10638 10636 10633 10631 10628 10625 10622 10619 10616 10613 10610 10607 10603 10600 10597 10593 10589
10669 10669 10668 10668 10667 10667 10666 10665 10664 10663 10662 10661 10659 10658 10657 10655 10652 10650 10648 10646 10644 10641 10639 10637 10634 10631 10628 10626 10623 10621 10618 10615 10612 10609 10606 10602 10599 10595 10592 10589 10585 10581
10663 10663 10662 10661 10661 10660 10659 10658 10657 10656 10655 10654 10652 10651 10650 10648 10646 10644 10642 10640 10637 10635 10633 10630 10627 10624 10621 10618 10616 10614 10611 10608 10605 10602 10598 10595 10591 10588 10584 10580 10576 10572
10657 10656 10656 10655 10654 10653 10652 10651 10650 10650 10649 10648 10646 10645 10643 10642 10640 10638 10636 10634 10631 10629 10626 10623 10620 10618 10614 10611 10608 10606 10603 10601 10597 10594 10590 10587 10583 10579 10575 10571 10566 10562
10651 10650 10649 10649 10648 10646 10645 10645 10644 10643 10642 10641 10640 10638 10637 10636 10634 10632 10630 10628 10625 10622 10620 10617 10614 10611 10607 10604 10601 10598 10595 10592 10589 10586 10582 10578 10574 10570 10565 10561 10556 10552
10645 10644 10643 10643 10642 10641 10640 10639 10638 10638 10636 10635 10634 10632 10631 10629 10628 10626 10624 10622 10619 10616 10613 10610 10607 10604 10601 10597 10594 10590 10587 10584 10580 10577 10573 10569 10564 10560 10556 10551 10547 10542
10639 10638 10637 10637 10636 10635 10635 10634 10633 10632 10631 10629 10628 10626 10625 10623 10622 10620 10618 10615 10613 10610 10607 10604 10601 10597 10594 10591 10587 10583 10579 10575 10572 10568 10564 10560 10555 10551 10547 10542 10537 10532
10634 10632 10632 10631 10630 10630 10629 10629 10628 10626 10625 10623 10622 10621 10619 10618 10616 10614 10612 10610 10607 10604 10601 10597 10594 10591 10587 10584 10580 10575 10571 10567 10563 10559 10555 10551 10547 10542 10537 10532 10527 10522
10628 10627 10626 10625 10625 10625 10624 10623 10622 10621 10619 10618 10617 10616 10614 10613 10611 10608 10606 10603 10600 10597 10594 10591 10588 10584 10580 10577 10572 10568 10564 10559 10555 10551 10547 10542 10537 10532 10527 10522 10517 10512
10623 10622 10622 10622 10621 10621 10620 10619 10617 10616 10615 10613 10612 10610 10609 10607 10605 10602 10600 10597 10594 10591 10588 10584 10581 10577 10573 10569 10565 10561 10556 10551 10546 10542 10537 10532 10527 10522 10518 10514 10509 10504
10617 10617 10618 10618 10617 10616 10615 10614 10613 10611 10610 10608 10606 10604 10603 10601 10598 10596 10593 10590 10587 10584 10580 10577 10573 10569 10565 10561 10557 10553 10548 10543 10538 10533 10528 10523 10519 10514 10509 10505 10500 10495
10612 10613 10613 10613 10612 10611 10610 10609 10608 10606 10604 10602 10600 10598 10597 10594 10592 10589 10586 10583 10580 10576 10573 10569 10565 10561 10557 10553 10549 10544 10540 10535 10530 10525 10520 10515 10511 10507 10502 10496 10491 10486
10608 10608 10608 10607 10607 10606 10605 10604 10602 10600 10599 10597 10594 10592 10590 10588 10585 10582 10579 10576 10572 10568 10565 10561 10557 10553 10549 10545 10541 10537 10532 10527 10522 10517 10513 10508 10503 10499 10494 10488 10483 10477
10603 10603 10603 10602 10602 10601 10600 10598 10597 10595 10593 10590 10588 10586 10583 10581 10578 10575 10572 10569 10565 10561 10558 10554 10550 10546 10542 10538 10534 10529 10524 10519 10515 10510 10505 10501 10496 10491 10485 10480 10474 10469
10598 10598 10598 10597 10597 10596 10595 10593 10591 10589 10587 10584 10582 10580 10577 10575 10572 10569 10565 10562 10559 10555 10551 10547 10543 10539 10535 10530 10526 10521 10517 10512 10508 10503 10498 10493 10488 10483 10477 10472 10466 10461
10594 10593 10593 10592 10591 10590 10589 10587 10585 10583 10580 10578 10576 10574 10571 10568 10565 10562 10559 10555 10552 10548 10544 10540 10536 10532 10527 10523 10519 10514 10510 10505 10500 10495 10490 10485 10479 10474 10469 10464 10458 10453